Wind_Speed
19 18 18 17 15 16 17 16 18 16 16 15 15 15 13 13 13 12 11 10 10 10 10 11 11 12 13 14 16 17 18 19 20 21 23 24 25 26 27 28 29 30 31 32
18 18 18 17 16 17 18 18 19 18 17 16 16 16 14 14 14 13 12 12 11 11 12 13 13 14 15 16 17 19 20 21 22 24 25 26 27 28 29 30 31 32 33 34
19 19 19 17 17 19 20 20 20 20 19 19 18 17 16 16 15 14 13 13 12 13 14 14 15 16 17 18 19 21 22 24 25 26 27 28 29 30 31 32 33 34 35 35
20 20 20 16 18 20 21 21 21 22 21 21 20 19 18 16 14 13 14 14 14 15 16 17 18 18 19 20 22 23 25 26 27 28 29 30 31 32 33 34 34 35 36 36
22 21 19 17 18 21 21 22 23 24 25 24 21 20 19 16 13 14 15 16 17 17 18 19 20 21 22 23 24 26 27 28 29 30 31 32 33 34 34 35 36 37 37 38
23 23 22 19 21 22 23 24 25 26 24 24 22 21 19 17 16 17 18 19 19 19 20 21 23 24 24 25 27 28 29 30 31 32 33 34 35 35 36 37 38 38 39 40
25 25 25 23 22 23 24 24 26 25 24 24 23 21 20 19 19 20 20 21 21 22 22 24 25 26 27 28 29 31 32 33 33 34 35 37 37 37 38 39 40 41 41 41
26 26 25 25 22 23 24 24 24 24 25 23 20 20 21 21 21 21 21 23 24 25 26 26 27 28 30 31 32 33 34 35 36 36 37 38 39 40 40 41 41 42 42 42
26 26 25 22 22 24 23 22 21 21 21 20 19 20 22 23 23 24 25 26 26 27 28 29 30 31 32 33 34 34 35 36 38 38 39 40 41 42 42 43 44 44 44 44
28 27 25 24 24 24 23 21 20 20 20 20 20 21 22 24 25 25 26 27 28 29 30 31 33 34 35 35 36 36 37 38 40 41 42 43 44 44 45 45 45 45 46 46
27 27 25 25 24 24 22 20 21 20 21 21 22 23 24 25 26 28 28 29 30 31 33 34 35 36 37 38 38 39 40 41 42 43 44 45 46 46 46 46 47 47 47 47
28 28 27 27 26 25 24 23 23 23 23 24 25 25 26 27 28 29 30 31 32 34 35 36 37 38 39 40 40 42 42 43 44 45 46 47 47 47 47 48 48 48 48 48
27 27 27 28 27 27 25 24 24 26 27 27 27 27 28 28 29 30 31 32 34 35 36 38 39 40 41 41 43 44 45 46 46 47 48 48 49 49 49 49 50 50 50 49
27 27 27 28 28 28 28 27 27 27 28 28 29 29 30 31 31 32 33 35 36 37 38 40 41 42 43 44 45 46 47 48 48 49 50 49 50 51 51 51 51 51 50 50
26 26 27 28 29 29 29 29 29 29 30 30 31 32 33 34 34 35 36 37 38 40 41 42 43 44 45 46 47 48 49 49 50 50 51 52 53 53 54 54 53 52 51 50
25 26 26 26 28 29 29 30 30 31 32 33 34 35 36 37 37 38 39 40 41 42 43 44 45 46 47 48 49 50 51 51 52 53 54 54 54 54 54 54 53 52 50 49
26 26 26 27 28 29 30 31 32 33 35 36 37 38 38 39 40 41 41 42 44 45 45 46 47 48 49 49 50 51 52 53 53 54 55 55 55 55 54 54 52 51 49 47
26 26 26 27 29 30 31 32 34 35 37 38 38 39 40 41 42 43 44 45 46 47 47 48 48 49 50 51 52 53 54 55 55 55 55 56 55 55 55 53 51 49 46 44
27 27 28 29 30 32 33 34 36 38 39 40 41 42 43 44 45 46 46 47 48 48 49 50 50 51 52 53 54 55 55 55 55 56 56 56 55 54 53 50 47 45 42 40
30 31 32 33 34 35 36 38 39 40 41 42 43 44 45 46 47 48 48 49 50 51 51 52 52 53 54 54 54 55 55 55 54 54 53 52 50 49 47 45 42 39 37 35
32 34 35 35 36 38 39 41 42 43 44 45 46 47 48 48 49 50 50 51 51 52 52 52 53 53 53 53 53 52 52 51 51 50 48 47 45 43 42 39 37 35 33 32
35 36 37 38 40 42 43 44 45 46 47 48 49 49 49 50 50 50 51 51 51 51 51 51 50 50 50 49 49 49 48 48 46 45 43 42 41 39 36 33 31 30 29 27
39 41 42 43 44 45 46 47 48 49 49 49 49 50 49 49 50 50 50 49 49 49 48 47 47 46 46 45 45 45 44 43 42 41 39 38 36 34 31 28 26 25 23 23
44 45 45 46 47 48 49 49 49 49 49 49 49 49 48 48 48 47 47 46 46 45 44 44 43 43 42 42 42 41 40 39 38 37 35 33 31 28 25 23 21 20 19 19
46 46 47 48 48 49 49 49 48 48 48 47 47 46 46 45 44 43 43 42 42 42 41 40 40 39 39 39 38 38 37 36 35 33 30 28 26 23 20 18 17 16 17 17
46 46 47 47 47 47 46 46 46 45 45 44 43 43 42 41 40 40 39 39 38 38 37 37 37 37 37 36 35 34 33 31 29 26 24 22 19 17 15 13 12 14 14 14
45 45 45 45 44 43 43 42 42 41 41 40 39 39 38 37 37 36 36 35 35 35 35 34 34 34 33 32 31 30 27 24 23 21 19 16 14 12 11 10 10 10 10 10
Wind_Direction
291 292 284 275 266 258 255 257 260 266 274 281 284 289 293 297 301 304 312 316 316 309 301 296 294 294 293 293 293 293 293 295 298 301 303 304 307 309 310 312 313 314 315 315
285 282 277 271 263 255 249 251 258 264 271 276 281 286 289 295 294 298 303 306 305 299 293 290 290 290 289 288 288 289 290 292 295 298 300 302 304 306 308 309 310 311 313 313
279 277 274 270 261 256 251 251 259 265 271 276 281 281 283 284 283 289 294 296 293 287 284 284 286 286 286 286 287 289 290 292 294 296 298 300 302 303 305 307 308 310 312 313
279 276 274 273 260 257 256 261 264 265 269 276 277 273 272 272 281 287 288 289 287 286 284 285 286 285 285 286 288 290 291 293 294 296 297 299 301 303 304 306 308 310 311 311
279 279 275 263 261 261 261 262 263 266 271 271 273 272 266 265 278 285 284 286 285 286 287 286 286 286 286 286 287 289 290 291 293 295 297 299 300 302 304 305 307 309 310 310
279 280 276 268 261 262 262 265 264 267 267 265 266 269 266 269 279 282 281 281 284 285 286 287 287 287 287 287 287 289 290 292 293 294 296 298 300 301 303 305 307 308 309 309
277 278 277 273 265 263 265 268 273 273 274 271 267 269 269 274 277 281 284 284 286 287 287 288 288 288 288 288 289 289 291 292 293 294 296 297 299 300 302 303 305 307 309 309
279 279 281 276 270 266 270 273 275 278 281 277 269 268 273 278 283 284 284 285 286 287 286 287 288 289 289 289 289 291 291 292 293 294 295 297 299 300 301 302 304 305 306 307
281 283 282 279 276 275 274 276 278 280 285 282 280 276 279 281 285 287 285 285 285 286 286 287 288 289 289 289 289 290 291 292 293 294 296 297 298 299 300 302 303 303 304 305
280 283 283 282 283 281 282 281 281 284 285 284 282 281 281 283 285 285 285 285 286 286 286 287 287 288 288 289 290 290 290 291 292 293 295 296 298 299 300 301 301 301 303 303
280 283 286 287 287 287 290 290 292 290 289 286 285 286 285 285 286 287 286 286 287 287 287 287 287 288 289 289 290 291 291 292 293 293 295 295 297 298 298 299 300 300 301 301
279 282 284 285 286 289 289 292 295 296 293 293 293 292 290 288 286 286 286 287 287 286 286 287 287 288 289 290 290 291 292 292 293 293 294 295 295 296 297 298 298 299 299 299
278 279 281 282 284 286 286 290 292 293 294 294 292 290 289 288 288 288 288 288 288 288 288 288 288 289 289 290 290 291 291 292 292 293 293 293 294 295 295 295 296 297 297 297
275 277 280 280 282 285 286 289 290 292 293 293 293 292 291 290 290 289 289 289 289 289 289 290 290 290 290 290 290 290 291 291 292 292 292 292 293 294 294 294 294 295 295 295
273 276 279 279 283 286 287 290 291 291 292 292 292 292 291 291 291 291 291 291 290 290 290 290 290 291 291 291 291 291 292 292 292 291 291 292 293 293 293 293 293 293 293 294
273 276 279 279 281 284 286 289 291 292 292 292 291 292 292 292 292 292 292 292 292 292 292 292 292 292 292 292 292 292 292 292 292 292 292 292 292 292 292 292 292 292 292 292
271 274 277 280 283 284 286 288 290 291 291 291 291 292 292 293 293 293 294 294 294 294 293 293 293 293 293 293 292 292 292 292 292 292 292 291 291 291 291 291 290 290 290 289
275 275 278 282 285 286 287 289 290 290 291 292 292 293 294 294 295 295 295 295 295 295 295 295 295 294 294 294 294 294 294 293 293 292 292 291 291 290 290 289 288 288 287 286
283 284 286 287 287 288 288 289 290 291 291 292 293 294 295 296 296 296 297 297 297 297 297 296 296 296 296 295 295 294 294 294 293 293 292 292 291 290 290 288 286 285 283 282
288 288 288 288 289 289 289 289 290 291 291 293 294 295 295 296 296 297 297 297 297 297 297 297 297 297 296 296 295 295 294 294 294 294 293 293 292 290 289 287 284 282 279 278
285 284 285 285 286 287 287 288 289 291 292 293 294 295 296 296 297 297 298 298 298 298 298 298 298 298 297 296 296 296 296 295 295 295 295 293 292 291 289 286 282 278 275 274
283 283 284 285 286 287 288 289 291 293 294 295 295 296 297 297 298 298 299 299 299 299 299 299 299 298 298 298 298 298 298 297 297 297 296 295 293 292 288 284 280 277 274 271
282 284 286 287 288 289 290 292 293 294 295 296 296 297 298 298 298 299 299 299 299 299 299 299 300 300 300 300 301 301 301 300 299 299 298 297 295 292 287 282 279 275 271 268
283 285 286 288 289 290 292 293 294 295 295 296 297 297 298 298 298 298 299 299 299 300 301 301 302 302 302 302 302 302 302 302 302 300 298 297 295 291 287 282 277 270 264 264
284 285 287 288 290 291 292 293 293 294 295 295 296 297 297 297 298 298 299 299 300 301 302 303 303 304 304 304 303 303 303 303 302 301 298 296 294 289 284 281 273 265 259 256
284 286 288 289 290 291 292 292 293 293 294 294 295 295 296 297 297 298 299 300 301 303 304 305 305 305 305 305 305 306 306 306 304 303 301 299 295 290 283 273 262 254 251 247
286 287 288 289 290 291 292 292 293 293 294 295 296 296 296 297 297 299 300 301 302 304 305 306 306 307 307 307 308 309 310 310 309 308 306 302 296 288 281 270 258 249 241 234
Height
5850 5849 5848 5847 5847 5846 5845 5845 5844 5844 5844 5844 5843 5843 5843 5843 5842 5842 5841 5841 5841 5840 5840 5840 5839 5839 5838 5837 5836 5835 5834 5832 5830 5828 5825 5822 5819 5816 5813 5809 5805 5801 5797 5793
5845 5844 5843 5842 5842 5842 5841 5840 5839 5839 5839 5839 5839 5838 5838 5838 5837 5837 5837 5837 5837 5836 5836 5835 5835 5834 5833 5833 5832 5830 5828 5826 5824 5822 5819 5816 5813 5809 5806 5802 5798 5794 5789 5785
5840 5839 5838 5838 5838 5836 5835 5834 5835 5834 5835 5834 5834 5834 5834 5834 5833 5833 5833 5833 5833 5832 5831 5831 5830 5829 5828 5827 5826 5824 5822 5820 5817 5815 5812 5809 5805 5802 5798 5794 5790 5786 5781 5776
5833 5833 5832 5835 5832 5830 5829 5829 5829 5829 5829 5829 5829 5830 5829 5829 5829 5828 5829 5829 5828 5827 5826 5825 5824 5824 5822 5821 5819 5817 5815 5813 5810 5807 5804 5801 5797 5794 5790 5786 5782 5777 5773 5768
5826 5825 5826 5828 5826 5825 5824 5823 5823 5823 5823 5824 5823 5823 5823 5824 5824 5824 5824 5823 5823 5822 5821 5820 5818 5817 5816 5814 5812 5810 5807 5805 5802 5799 5796 5793 5789 5785 5781 5777 5773 5768 5764 5759
5819 5819 5819 5822 5821 5820 5820 5818 5817 5817 5817 5817 5817 5817 5818 5818 5818 5818 5818 5817 5817 5816 5815 5813 5812 5810 5808 5806 5804 5802 5799 5796 5794 5791 5787 5784 5780 5776 5772 5768 5763 5759 5754 5749
5813 5812 5812 5814 5814 5814 5815 5814 5813 5811 5811 5810 5810 5811 5811 5811 5812 5812 5811 5810 5809 5808 5807 5806 5804 5802 5801 5798 5796 5793 5791 5788 5785 5781 5778 5774 5770 5766 5762 5758 5753 5748 5744 5739
5806 5806 5807 5806 5806 5807 5807 5806 5806 5804 5804 5803 5802 5803 5803 5804 5804 5804 5803 5802 5801 5800 5799 5798 5796 5794 5792 5790 5787 5784 5782 5778 5775 5771 5768 5764 5760 5756 5751 5747 5742 5738 5733 5728
5800 5800 5799 5798 5798 5798 5798 5798 5798 5798 5797 5796 5796 5796 5797 5797 5796 5796 5795 5794 5793 5792 5790 5789 5787 5785 5783 5780 5777 5774 5771 5768 5764 5760 5756 5753 5749 5744 5740 5735 5731 5726 5721 5717
5792 5791 5790 5790 5791 5790 5790 5790 5791 5791 5792 5791 5791 5790 5790 5789 5788 5788 5787 5786 5784 5783 5781 5779 5777 5775 5772 5769 5766 5763 5760 5757 5753 5749 5745 5741 5736 5732 5728 5723 5719 5714 5709 5704
5784 5784 5783 5783 5784 5784 5783 5783 5784 5784 5784 5784 5783 5782 5782 5781 5780 5779 5777 5776 5774 5773 5771 5769 5766 5764 5761 5758 5755 5752 5748 5744 5740 5736 5733 5729 5724 5720 5715 5711 5706 5701 5697 5692
5777 5777 5778 5777 5777 5777 5777 5777 5776 5776 5776 5775 5775 5774 5774 5773 5771 5769 5768 5766 5764 5762 5760 5758 5755 5752 5749 5746 5743 5739 5735 5731 5727 5723 5720 5715 5711 5707 5702 5698 5693 5688 5683 5678
5771 5770 5770 5769 5769 5769 5769 5769 5769 5769 5768 5767 5767 5766 5765 5763 5762 5760 5758 5756 5753 5751 5748 5746 5743 5740 5737 5734 5730 5726 5722 5718 5714 5710 5705 5701 5697 5693 5689 5685 5679 5674 5669 5665
5764 5763 5762 5762 5761 5761 5761 5762 5762 5761 5760 5759 5758 5756 5755 5753 5751 5749 5747 5745 5742 5739 5737 5733 5730 5727 5724 5720 5716 5712 5708 5704 5700 5695 5691 5686 5682 5678 5673 5669 5666 5661 5656 5650
5756 5756 5755 5754 5753 5753 5753 5753 5753 5752 5751 5750 5748 5746 5744 5742 5740 5738 5736 5733 5730 5727 5724 5721 5717 5713 5710 5706 5702 5697 5693 5689 5685 5680 5675 5671 5666 5662 5657 5653 5649 5645 5641 5636
5748 5748 5747 5746 5745 5745 5744 5744 5743 5742 5741 5739 5737 5735 5733 5731 5729 5726 5723 5720 5717 5714 5711 5707 5703 5699 5695 5691 5687 5682 5678 5673 5668 5664 5659 5655 5650 5645 5641 5637 5632 5628 5625 5621
5740 5740 5740 5739 5738 5737 5736 5735 5734 5732 5730 5728 5726 5724 5722 5719 5717 5714 5710 5707 5704 5700 5696 5692 5688 5684 5680 5675 5671 5666 5662 5657 5652 5647 5642 5637 5633 5628 5624 5620 5616 5612 5609 5605
5732 5732 5731 5731 5730 5729 5727 5726 5724 5721 5719 5717 5714 5712 5709 5707 5704 5700 5697 5693 5690 5686 5681 5677 5673 5668 5664 5659 5654 5649 5644 5639 5634 5629 5624 5619 5615 5610 5606 5602 5599 5596 5593 5590
5723 5723 5722 5721 5720 5719 5717 5715 5713 5710 5708 5705 5702 5700 5697 5693 5690 5686 5683 5679 5675 5671 5666 5662 5657 5652 5647 5642 5637 5631 5626 5621 5616 5611 5606 5601 5596 5592 5588 5585 5582 5579 5577 5576
5715 5714 5713 5711 5710 5708 5706 5704 5701 5699 5696 5693 5690 5687 5684 5680 5676 5672 5668 5664 5660 5655 5650 5645 5640 5635 5630 5624 5619 5614 5608 5603 5598 5593 5588 5583 5579 5574 5571 5568 5566 5564 5563 5562
5705 5704 5702 5701 5699 5697 5694 5692 5689 5686 5683 5680 5677 5673 5669 5666 5661 5657 5653 5649 5644 5639 5634 5629 5623 5618 5612 5607 5602 5596 5591 5586 5581 5576 5571 5567 5563 5559 5556 5553 5551 5550 5550 5550
5694 5692 5691 5689 5687 5685 5682 5679 5676 5673 5670 5666 5662 5658 5655 5651 5646 5642 5637 5633 5628 5623 5618 5612 5607 5601 5596 5591 5585 5580 5575 5570 5565 5560 5556 5552 5548 5545 5542 5540 5539 5538 5538 5538
5683 5681 5678 5676 5674 5671 5668 5665 5662 5659 5655 5652 5648 5644 5640 5636 5631 5627 5623 5617 5612 5608 5603 5597 5592 5587 5582 5576 5571 5566 5560 5555 5551 5546 5542 5538 5535 5532 5530 5528 5528 5528 5528 5529
5670 5668 5666 5663 5660 5658 5655 5651 5648 5645 5641 5637 5633 5629 5625 5621 5617 5612 5607 5603 5598 5594 5589 5584 5579 5574 5569 5563 5558 5553 5548 5543 5538 5534 5530 5526 5523 5521 5519 5519 5518 5519 5520 5521
5658 5655 5652 5650 5647 5644 5641 5637 5634 5631 5627 5623 5619 5615 5611 5607 5603 5599 5594 5590 5585 5581 5576 5571 5566 5561 5556 5551 5546 5541 5536 5531 5526 5522 5518 5515 5513 5512 5511 5510 5511 5512 5513 5514
5645 5642 5639 5636 5633 5630 5627 5624 5620 5617 5613 5610 5606 5602 5598 5594 5590 5586 5582 5577 5573 5569 5565 5560 5555 5550 5545 5540 5535 5531 5526 5521 5517 5513 5510 5508 5506 5505 5504 5504 5505 5506 5508 5509
5631 5628 5625 5622 5619 5616 5613 5610 5607 5603 5600 5597 5593 5590 5586 5582 5578 5574 5571 5567 5563 5559 5554 5550 5545 5540 5535 5531 5526 5522 5517 5513 5510 5506 5504 5502 5501 5500 5500 5500 5501 5502 5504 5505